| time (UTC) | temp F | wind direction | speed MPH | gust MPH | rain 1hr in | rain 24hr in | rain mn in | humidity % | barometer mb |
| 20260902202043 | 73 | 356 | 0.0 | 2.0 | 0.00 | 0.00 | 0.00 | 56 | 1021.4 |
| 20260902201543 | 73 | 8 | 0.0 | 2.0 | 0.00 | 0.00 | 0.00 | 56 | 1021.4 |
| 20260902201040 | 74 | 345 | 0.0 | 1.0 | 0.00 | 0.00 | 0.00 | 56 | 1021.3 |
| 20260902200539 | 74 | 0 | 0.0 | 0.0 | 0.00 | 0.00 | 0.00 | 56 | 1021.3 |
| 20260902200038 | 74 | 352 | 0.0 | 0.0 | 0.00 | 0.00 | 0.00 | 56 | 1021.3 |
| 20260902195037 | 74 | 351 | 0.0 | 2.0 | 0.00 | 0.00 | 0.00 | 55 | 1021.3 |
| 20260902194537 | 74 | 7 | 0.0 | 2.0 | 0.00 | 0.00 | 0.00 | 54 | 1021.3 |
| 20260902193030 | 75 | 349 | 0.0 | 2.0 | 0.00 | 0.00 | 0.00 | 54 | 1021.3 |
| 20260902192529 | 75 | 276 | 0.0 | 5.0 | 0.00 | 0.00 | 0.00 | 53 | 1021.3 |
| 20260902192029 | 75 | 327 | 1.0 | 5.0 | 0.00 | 0.00 | 0.00 | 53 | 1021.4 |
| 20260902191026 | 75 | 324 | 1.0 | 6.0 | 0.00 | 0.00 | 0.00 | 53 | 1021.3 |
| 20260902190029 | 75 | 283 | 1.0 | 6.0 | 0.00 | 0.00 | 0.00 | 51 | 1021.3 |
| 20260902184528 | 76 | 286 | 1.0 | 6.0 | 0.00 | 0.00 | 0.00 | 51 | 1021.4 |
| 20260902184024 | 76 | 305 | 2.0 | 7.0 | 0.00 | 0.00 | 0.00 | 51 | 1021.3 |
| 20260902183524 | 76 | 297 | 2.0 | 7.0 | 0.00 | 0.00 | 0.00 | 51 | 1021.2 |
| 20260902183024 | 76 | 299 | 2.0 | 7.0 | 0.00 | 0.00 | 0.00 | 51 | 1021.2 |
| 20260902182517 | 76 | 247 | 2.0 | 7.0 | 0.00 | 0.00 | 0.00 | 52 | 1021.1 |
| 20260902182019 | 76 | 275 | 2.0 | 7.0 | 0.00 | 0.00 | 0.00 | 53 | 1021.0 |
| 20260902181517 | 76 | 263 | 1.0 | 7.0 | 0.00 | 0.00 | 0.00 | 53 | 1021.0 |
| 20260902181016 | 76 | 288 | 2.0 | 7.0 | 0.00 | 0.00 | 0.00 | 53 | 1020.9 |
| 20260902180516 | 76 | 280 | 2.0 | 7.0 | 0.00 | 0.00 | 0.00 | 54 | 1020.9 |
| 20260902180015 | 76 | 296 | 2.0 | 7.0 | 0.00 | 0.00 | 0.00 | 54 | 1020.9 |
| 20260902175512 | 77 | 266 | 2.0 | 6.0 | 0.00 | 0.00 | 0.00 | 54 | 1020.9 |
| 20260902174514 | 77 | 281 | 2.0 | 7.0 | 0.00 | 0.00 | 0.00 | 54 | 1020.8 |
| 20260902173508 | 78 | 285 | 3.0 | 8.0 | 0.00 | 0.00 | 0.00 | 54 | 1020.8 |
| 20260902172516 | 79 | 281 | 3.0 | 9.0 | 0.00 | 0.00 | 0.00 | 54 | 1020.8 |
| 20260902172006 | 80 | 276 | 3.0 | 8.0 | 0.00 | 0.00 | 0.00 | 53 | 1020.8 |
| 20260902171506 | 80 | 259 | 2.0 | 6.0 | 0.00 | 0.00 | 0.00 | 52 | 1020.8 |
| 20260902170506 | 81 | 280 | 4.0 | 9.0 | 0.00 | 0.00 | 0.00 | 51 | 1020.8 |
| 20260902170005 | 82 | 278 | 4.0 | 9.0 | 0.00 | 0.00 | 0.00 | 50 | 1020.8 |
| 20260902165505 | 83 | 266 | 3.0 | 9.0 | 0.00 | 0.00 | 0.00 | 49 | 1020.9 |
| 20260902165004 | 83 | 251 | 2.0 | 7.0 | 0.00 | 0.00 | 0.00 | 48 | 1020.8 |
| 20260902164503 | 84 | 257 | 2.0 | 6.0 | 0.00 | 0.00 | 0.00 | 46 | 1020.8 |
| 20260902164002 | 84 | 241 | 2.0 | 6.0 | 0.00 | 0.00 | 0.00 | 45 | 1020.8 |
| 20260902163502 | 85 | 262 | 2.0 | 6.0 | 0.00 | 0.00 | 0.00 | 44 | 1020.8 |
| 20260902163003 | 85 | 261 | 1.0 | 5.0 | 0.00 | 0.00 | 0.00 | 43 | 1020.9 |
| 20260902162502 | 85 | 270 | 1.0 | 4.0 | 0.00 | 0.00 | 0.00 | 43 | 1020.9 |
| 20260902162002 | 85 | 262 | 2.0 | 6.0 | 0.00 | 0.00 | 0.00 | 42 | 1020.9 |
| 20260902161502 | 85 | 292 | 1.0 | 6.0 | 0.00 | 0.00 | 0.00 | 41 | 1020.9 |
| 20260902161000 | 86 | 261 | 1.0 | 5.0 | 0.00 | 0.00 | 0.00 | 43 | 1020.9 |
| 20260902160454 | 85 | 273 | 1.0 | 5.0 | 0.00 | 0.00 | 0.00 | 41 | 1020.9 |
| 20260902155455 | 85 | 255 | 2.0 | 7.0 | 0.00 | 0.00 | 0.00 | 41 | 1021.0 |
| 20260902154956 | 85 | 285 | 2.0 | 7.0 | 0.00 | 0.00 | 0.00 | 41 | 1021.0 |
| 20260902153954 | 86 | 246 | 2.0 | 7.0 | 0.00 | 0.00 | 0.00 | 40 | 1021.0 |
| 20260902152952 | 86 | 222 | 2.0 | 8.0 | 0.00 | 0.00 | 0.00 | 38 | 1020.9 |
| 20260902152452 | 86 | 258 | 1.0 | 8.0 | 0.00 | 0.00 | 0.00 | 42 | 1020.9 |
| 20260902151953 | 86 | 248 | 3.0 | 10.0 | 0.00 | 0.00 | 0.00 | 41 | 1020.9 |
| 20260902150954 | 86 | 242 | 4.0 | 11.0 | 0.00 | 0.00 | 0.00 | 41 | 1020.9 |
| 20260902150451 | 85 | 304 | 3.0 | 9.0 | 0.00 | 0.00 | 0.00 | 42 | 1020.9 |
| 20260902145955 | 85 | 257 | 2.0 | 8.0 | 0.00 | 0.00 | 0.00 | 42 | 1020.9 |
| 20260902144948 | 85 | 217 | 1.0 | 7.0 | 0.00 | 0.00 | 0.00 | 39 | 1020.9 |
| 20260902144448 | 85 | 243 | 2.0 | 7.0 | 0.00 | 0.00 | 0.00 | 38 | 1020.9 |
| 20260902143948 | 86 | 262 | 2.0 | 9.0 | 0.00 | 0.00 | 0.00 | 39 | 1020.9 |
| 20260902143446 | 86 | 264 | 3.0 | 9.0 | 0.00 | 0.00 | 0.00 | 38 | 1020.9 |
| 20260902142946 | 86 | 213 | 2.0 | 9.0 | 0.00 | 0.00 | 0.00 | 38 | 1020.9 |
| 20260902142446 | 87 | 247 | 2.0 | 6.0 | 0.00 | 0.00 | 0.00 | 37 | 1021.0 |
| 20260902141945 | 87 | 238 | 3.0 | 8.0 | 0.00 | 0.00 | 0.00 | 37 | 1021.0 |
| 20260902141446 | 87 | 226 | 4.0 | 10.0 | 0.00 | 0.00 | 0.00 | 37 | 1021.0 |
| 20260902140947 | 87 | 267 | 3.0 | 10.0 | 0.00 | 0.00 | 0.00 | 36 | 1021.0 |
| 20260902140446 | 87 | 221 | 4.0 | 11.0 | 0.00 | 0.00 | 0.00 | 37 | 1021.1 |
| 20260902135945 | 87 | 242 | 5.0 | 11.0 | 0.00 | 0.00 | 0.00 | 35 | 1021.2 |
| 20260902135446 | 87 | 197 | 3.0 | 9.0 | 0.00 | 0.00 | 0.00 | 36 | 1021.2 |
| 20260902134947 | 88 | 210 | 2.0 | 7.0 | 0.00 | 0.00 | 0.00 | 34 | 1021.2 |
| 20260902134444 | 88 | 220 | 3.0 | 9.0 | 0.00 | 0.00 | 0.00 | 36 | 1021.3 |
| 20260902133444 | 87 | 250 | 4.0 | 12.0 | 0.00 | 0.00 | 0.00 | 35 | 1021.3 |
| 20260902132944 | 87 | 199 | 4.0 | 12.0 | 0.00 | 0.00 | 0.00 | 34 | 1021.3 |
| 20260902132445 | 87 | 203 | 3.0 | 9.0 | 0.00 | 0.00 | 0.00 | 34 | 1021.4 |
| 20260902131442 | 87 | 205 | 2.0 | 8.0 | 0.00 | 0.00 | 0.00 | 35 | 1021.5 |
| 20260902130944 | 87 | 257 | 2.0 | 8.0 | 0.00 | 0.00 | 0.00 | 36 | 1021.5 |
| 20260902130442 | 87 | 309 | 3.0 | 8.0 | 0.00 | 0.00 | 0.00 | 36 | 1021.5 |
| 20260902125942 | 87 | 233 | 3.0 | 10.0 | 0.00 | 0.00 | 0.00 | 37 | 1021.6 |
| 20260902125446 | 86 | 212 | 2.0 | 10.0 | 0.00 | 0.00 | 0.00 | 37 | 1021.5 |
| 20260902124945 | 85 | 203 | 1.0 | 7.0 | 0.00 | 0.00 | 0.00 | 44 | 1021.7 |
| 20260902124442 | 85 | 67 | 3.0 | 11.0 | 0.00 | 0.00 | 0.00 | 42 | 1021.8 |
| 20260902123942 | 86 | 210 | 2.0 | 11.0 | 0.00 | 0.00 | 0.00 | 42 | 1021.7 |
| 20260902123438 | 86 | 141 | 0.0 | 9.0 | 0.00 | 0.00 | 0.00 | 44 | 1021.9 |
| 20260902122939 | 86 | 207 | 1.0 | 7.0 | 0.00 | 0.00 | 0.00 | 44 | 1021.9 |
| 20260902122439 | 85 | 214 | 2.0 | 7.0 | 0.00 | 0.00 | 0.00 | 43 | 1022.0 |
| 20260902121437 | 85 | 134 | 3.0 | 9.0 | 0.00 | 0.00 | 0.00 | 47 | 1022.0 |
| 20260902115938 | 85 | 155 | 2.0 | 8.0 | 0.00 | 0.00 | 0.00 | 46 | 1022.1 |
| 20260902115438 | 85 | 212 | 1.0 | 8.0 | 0.00 | 0.00 | 0.00 | 46 | 1022.1 |
| 20260902114938 | 84 | 198 | 1.0 | 3.0 | 0.00 | 0.00 | 0.00 | 45 | 1022.2 |
| 20260902114438 | 84 | 278 | 3.0 | 7.0 | 0.00 | 0.00 | 0.00 | 46 | 1022.2 |
| 20260902113938 | 84 | 222 | 4.0 | 8.0 | 0.00 | 0.00 | 0.00 | 46 | 1022.2 |
| 20260902113440 | 84 | 285 | 3.0 | 8.0 | 0.00 | 0.00 | 0.00 | 47 | 1022.3 |
| 20260902112938 | 84 | 201 | 2.0 | 7.0 | 0.00 | 0.00 | 0.00 | 49 | 1022.2 |
| 20260902112438 | 85 | 227 | 2.0 | 6.0 | 0.00 | 0.00 | 0.00 | 50 | 1022.5 |
| 20260902111938 | 85 | 162 | 1.0 | 6.0 | 0.00 | 0.00 | 0.00 | 49 | 1022.5 |
| 20260902111439 | 84 | 141 | 2.0 | 6.0 | 0.00 | 0.00 | 0.00 | 48 | 1022.5 |
| 20260902110436 | 84 | 138 | 3.0 | 9.0 | 0.00 | 0.00 | 0.00 | 51 | 1022.6 |
| 20260902105938 | 84 | 119 | 2.0 | 9.0 | 0.00 | 0.00 | 0.00 | 52 | 1022.5 |
| 20260902105437 | 84 | 218 | 1.0 | 5.0 | 0.00 | 0.00 | 0.00 | 51 | 1022.6 |
| 20260902104936 | 85 | 277 | 1.0 | 5.0 | 0.00 | 0.00 | 0.00 | 52 | 1022.7 |
| 20260902104434 | 84 | 122 | 1.0 | 5.0 | 0.00 | 0.00 | 0.00 | 52 | 1022.8 |
| 20260902103432 | 83 | 283 | 0.0 | 3.0 | 0.00 | 0.00 | 0.00 | 52 | 1022.8 |
| 20260902102420 | 82 | 265 | 1.0 | 6.0 | 0.00 | 0.00 | 0.00 | 53 | 1023.0 |
| 20260902101915 | 83 | 202 | 1.0 | 6.0 | 0.00 | 0.00 | 0.00 | 53 | 1023.0 |
| 20260902101415 | 82 | 136 | 2.0 | 6.0 | 0.00 | 0.00 | 0.00 | 52 | 1023.0 |
| 20260902100416 | 82 | 191 | 2.0 | 6.0 | 0.00 | 0.00 | 0.00 | 54 | 1023.1 |
| 20260902095915 | 82 | 144 | 2.0 | 6.0 | 0.00 | 0.00 | 0.00 | 54 | 1023.2 |
| 20260902095415 | 82 | 221 | 2.0 | 6.0 | 0.00 | 0.00 | 0.00 | 54 | 1023.1 |
| 20260902094915 | 82 | 161 | 1.0 | 6.0 | 0.00 | 0.00 | 0.00 | 54 | 1023.1 |
| 20260902093416 | 81 | 95 | 2.0 | 7.0 | 0.00 | 0.00 | 0.00 | 55 | 1023.2 |
| 20260902092916 | 81 | 137 | 1.0 | 7.0 | 0.00 | 0.00 | 0.00 | 55 | 1023.2 |
| 20260902092423 | 82 | 143 | 0.0 | 3.0 | 0.00 | 0.00 | 0.00 | 56 | 1023.1 |
| 20260902091907 | 81 | 129 | 1.0 | 7.0 | 0.00 | 0.00 | 0.00 | 58 | 1023.1 |
| 20260902091407 | 81 | 223 | 2.0 | 7.0 | 0.00 | 0.00 | 0.00 | 58 | 1023.1 |
| 20260902090905 | 81 | 191 | 2.0 | 6.0 | 0.00 | 0.00 | 0.00 | 59 | 1023.0 |
| 20260902090401 | 81 | 223 | 1.0 | 5.0 | 0.00 | 0.00 | 0.00 | 59 | 1023.0 |
| 20260902085901 | 81 | 218 | 1.0 | 4.0 | 0.00 | 0.00 | 0.00 | 59 | 1023.0 |
| 20260902084902 | 81 | 127 | 1.0 | 5.0 | 0.00 | 0.00 | 0.00 | 58 | 1023.0 |
| 20260902084401 | 81 | 191 | 0.0 | 3.0 | 0.00 | 0.00 | 0.00 | 57 | 1023.0 |
| 20260902083859 | 80 | 132 | 0.0 | 4.0 | 0.00 | 0.00 | 0.00 | 57 | 1022.9 |
| 20260902083357 | 81 | 101 | 0.0 | 4.0 | 0.00 | 0.00 | 0.00 | 55 | 1022.8 |
| 20260902082859 | 81 | 127 | 0.0 | 2.0 | 0.00 | 0.00 | 0.00 | 58 | 1022.8 |
| 20260902081856 | 80 | 270 | 0.0 | 1.0 | 0.00 | 0.00 | 0.00 | 58 | 1022.8 |
| 20260902080853 | 79 | 295 | 0.0 | 2.0 | 0.00 | 0.00 | 0.00 | 60 | 1022.7 |
| 20260902080353 | 79 | 269 | 0.0 | 1.0 | 0.00 | 0.00 | 0.00 | 60 | 1022.7 |
| 20260902075851 | 79 | 110 | 0.0 | 2.0 | 0.00 | 0.00 | 0.00 | 58 | 1022.6 |
| 20260902075348 | 78 | 79 | 1.0 | 2.0 | 0.00 | 0.00 | 0.00 | 59 | 1022.5 |
| 20260902074843 | 78 | 78 | 0.0 | 2.0 | 0.00 | 0.00 | 0.00 | 59 | 1022.5 |
| 20260902073835 | 78 | 24 | 1.0 | 3.0 | 0.00 | 0.00 | 0.00 | 61 | 1022.3 |
| 20260902073335 | 77 | 22 | 1.0 | 3.0 | 0.00 | 0.00 | 0.00 | 59 | 1022.3 |
| 20260902072833 | 77 | 91 | 0.0 | 3.0 | 0.00 | 0.00 | 0.00 | 61 | 1022.3 |
| 20260902072330 | 77 | 91 | 0.0 | 3.0 | 0.00 | 0.00 | 0.00 | 61 | 1022.2 |
| 20260902071828 | 77 | 45 | 0.0 | 3.0 | 0.00 | 0.00 | 0.00 | 59 | 1022.2 |
| 20260902071328 | 78 | 4 | 0.0 | 1.0 | 0.00 | 0.00 | 0.00 | 61 | 1022.3 |
| 20260902070827 | 77 | 134 | 0.0 | 3.0 | 0.00 | 0.00 | 0.00 | 62 | 1022.2 |
| 20260902070327 | 77 | 117 | 0.0 | 3.0 | 0.00 | 0.00 | 0.00 | 61 | 1022.2 |
| 20260902065824 | 76 | 33 | 0.0 | 3.0 | 0.00 | 0.00 | 0.00 | 62 | 1022.2 |
| 20260902065323 | 75 | 24 | 1.0 | 4.0 | 0.00 | 0.00 | 0.00 | 64 | 1022.2 |
| 20260902064825 | 75 | 75 | 1.0 | 4.0 | 0.00 | 0.00 | 0.00 | 65 | 1022.2 |
| 20260902064325 | 75 | 50 | 0.0 | 3.0 | 0.00 | 0.00 | 0.00 | 65 | 1022.2 |
| 20260902063825 | 75 | 120 | 0.0 | 3.0 | 0.00 | 0.00 | 0.00 | 67 | 1022.1 |
| 20260902063323 | 74 | 34 | 1.0 | 5.0 | 0.00 | 0.00 | 0.00 | 69 | 1022.1 |
| 20260902062816 | 74 | 39 | 1.0 | 6.0 | 0.00 | 0.00 | 0.00 | 69 | 1022.0 |
| 20260902062311 | 74 | 16 | 1.0 | 6.0 | 0.00 | 0.00 | 0.00 | 68 | 1022.0 |
| 20260902061809 | 73 | 7 | 2.0 | 8.0 | 0.00 | 0.00 | 0.00 | 69 | 1022.0 |
| 20260902061308 | 73 | 23 | 3.0 | 8.0 | 0.00 | 0.00 | 0.00 | 69 | 1022.0 |
| 20260902060808 | 73 | 39 | 3.0 | 7.0 | 0.00 | 0.00 | 0.00 | 69 | 1022.1 |
| 20260902060307 | 72 | 6 | 2.0 | 6.0 | 0.00 | 0.00 | 0.00 | 71 | 1021.9 |
| 20260902055808 | 72 | 35 | 2.0 | 6.0 | 0.00 | 0.00 | 0.00 | 72 | 1021.9 |
| 20260902055307 | 72 | 28 | 2.0 | 5.0 | 0.00 | 0.00 | 0.00 | 72 | 1021.9 |
| 20260902054806 | 71 | 35 | 2.0 | 5.0 | 0.00 | 0.00 | 0.00 | 73 | 1021.9 |
| 20260902054306 | 71 | 41 | 2.0 | 5.0 | 0.00 | 0.00 | 0.00 | 73 | 1021.9 |
| 20260902053805 | 71 | 358 | 2.0 | 6.0 | 0.00 | 0.00 | 0.00 | 73 | 1021.8 |
| 20260902053301 | 71 | 14 | 3.0 | 7.0 | 0.00 | 0.00 | 0.00 | 73 | 1021.8 |
| 20260902052800 | 71 | 21 | 3.0 | 7.0 | 0.00 | 0.00 | 0.00 | 74 | 1021.8 |
| 20260902052306 | 71 | 14 | 3.0 | 7.0 | 0.00 | 0.00 | 0.00 | 75 | 1021.8 |
| 20260902051801 | 70 | 35 | 4.0 | 7.0 | 0.00 | 0.00 | 0.00 | 75 | 1021.7 |
| 20260902051301 | 70 | 31 | 3.0 | 7.0 | 0.00 | 0.00 | 0.00 | 76 | 1021.6 |
| 20260902050248 | 69 | 58 | 3.0 | 8.0 | 0.00 | 0.00 | 0.00 | 76 | 1021.6 |
| 20260902045746 | 69 | 27 | 3.0 | 8.0 | 0.00 | 0.00 | 0.00 | 77 | 1021.7 |
| 20260902045248 | 69 | 7 | 3.0 | 7.0 | 0.00 | 0.00 | 0.00 | 77 | 1021.6 |
| 20260902044745 | 69 | 23 | 2.0 | 6.0 | 0.00 | 0.00 | 0.00 | 77 | 1021.6 |
| 20260902043746 | 69 | 19 | 3.0 | 7.0 | 0.00 | 0.00 | 0.00 | 77 | 1021.7 |
| 20260902043247 | 69 | 32 | 3.0 | 7.0 | 0.00 | 0.00 | 0.00 | 77 | 1021.8 |
| 20260902042744 | 69 | 29 | 3.0 | 7.0 | 0.00 | 0.00 | 0.00 | 77 | 1021.8 |
| 20260902042245 | 69 | 26 | 3.0 | 7.0 | 0.00 | 0.00 | 0.00 | 77 | 1021.8 |
| 20260902041744 | 69 | 10 | 4.0 | 7.0 | 0.00 | 0.00 | 0.00 | 76 | 1021.8 |
| 20260902041248 | 69 | 20 | 4.0 | 7.0 | 0.00 | 0.00 | 0.00 | 77 | 1021.7 |
| 20260902040745 | 69 | 28 | 4.0 | 8.0 | 0.00 | 0.00 | 0.00 | 77 | 1021.6 |
| 20260902040245 | 69 | 34 | 4.0 | 8.0 | 0.00 | 0.00 | 0.00 | 77 | 1021.7 |
| 20260902035746 | 69 | 23 | 4.0 | 7.0 | 0.00 | 0.00 | 0.00 | 76 | 1021.7 |
| 20260902034743 | 69 | 36 | 5.0 | 10.0 | 0.00 | 0.00 | 0.00 | 76 | 1021.6 |
| 20260902034242 | 69 | 36 | 5.0 | 10.0 | 0.00 | 0.00 | 0.00 | 76 | 1021.6 |
| 20260902033743 | 69 | 4 | 5.0 | 9.0 | 0.00 | 0.00 | 0.00 | 76 | 1021.6 |
| 20260902033245 | 69 | 24 | 5.0 | 8.0 | 0.00 | 0.00 | 0.00 | 76 | 1021.6 |
| 20260902032745 | 69 | 27 | 4.0 | 8.0 | 0.00 | 0.00 | 0.00 | 76 | 1021.6 |
| 20260902031745 | 69 | 14 | 4.0 | 9.0 | 0.00 | 0.00 | 0.00 | 76 | 1021.7 |
| 20260902030742 | 69 | 354 | 5.0 | 9.0 | 0.00 | 0.00 | 0.00 | 76 | 1021.7 |
| 20260902030243 | 69 | 20 | 6.0 | 10.0 | 0.00 | 0.00 | 0.00 | 76 | 1021.8 |
| 20260902025739 | 69 | 50 | 6.0 | 10.0 | 0.00 | 0.00 | 0.00 | 76 | 1021.8 |
| 20260902025239 | 68 | 4 | 5.0 | 9.0 | 0.00 | 0.00 | 0.00 | 76 | 1021.7 |
| 20260902024739 | 68 | 27 | 5.0 | 8.0 | 0.00 | 0.00 | 0.00 | 77 | 1021.7 |
| 20260902024241 | 68 | 7 | 5.0 | 8.0 | 0.00 | 0.00 | 0.00 | 77 | 1021.7 |
| 20260902023741 | 68 | 41 | 5.0 | 10.0 | 0.00 | 0.00 | 0.00 | 77 | 1021.7 |
| 20260902023243 | 68 | 20 | 5.0 | 10.0 | 0.00 | 0.00 | 0.00 | 76 | 1021.7 |
| 20260902022739 | 68 | 29 | 5.0 | 10.0 | 0.00 | 0.00 | 0.00 | 76 | 1021.7 |
| 20260902022238 | 69 | 18 | 6.0 | 10.0 | 0.00 | 0.00 | 0.00 | 76 | 1021.6 |
| 20260902021735 | 69 | 25 | 6.0 | 10.0 | 0.00 | 0.00 | 0.00 | 76 | 1021.6 |
| 20260902021236 | 69 | 19 | 5.0 | 9.0 | 0.00 | 0.00 | 0.00 | 76 | 1021.6 |
| 20260902020734 | 68 | 32 | 5.0 | 9.0 | 0.00 | 0.00 | 0.00 | 76 | 1021.5 |
| 20260902020237 | 68 | 359 | 5.0 | 9.0 | 0.00 | 0.00 | 0.00 | 77 | 1021.6 |
| 20260902015734 | 68 | 34 | 5.0 | 10.0 | 0.00 | 0.00 | 0.00 | 77 | 1021.7 |
| 20260902015236 | 68 | 32 | 5.0 | 10.0 | 0.00 | 0.00 | 0.00 | 77 | 1021.6 |
| 20260902014735 | 69 | 6 | 5.0 | 9.0 | 0.00 | 0.00 | 0.00 | 77 | 1021.7 |
| 20260902014235 | 69 | 2 | 6.0 | 10.0 | 0.00 | 0.00 | 0.00 | 77 | 1021.7 |
| 20260902013733 | 69 | 46 | 6.0 | 10.0 | 0.00 | 0.00 | 0.00 | 76 | 1021.6 |
| 20260902013229 | 69 | 29 | 6.0 | 10.0 | 0.00 | 0.00 | 0.00 | 76 | 1021.7 |
| 20260902012730 | 69 | 31 | 5.0 | 10.0 | 0.00 | 0.00 | 0.00 | 76 | 1021.8 |
| 20260902012228 | 69 | 9 | 5.0 | 8.0 | 0.00 | 0.00 | 0.00 | 76 | 1021.7 |
| 20260902010731 | 70 | 40 | 4.0 | 8.0 | 0.00 | 0.00 | 0.00 | 76 | 1021.7 |
| 20260902010228 | 70 | 38 | 4.0 | 8.0 | 0.00 | 0.00 | 0.00 | 76 | 1021.7 |
| 20260902005728 | 70 | 345 | 4.0 | 7.0 | 0.00 | 0.00 | 0.00 | 76 | 1021.9 |
| 20260902005229 | 69 | 23 | 4.0 | 7.0 | 0.00 | 0.00 | 0.00 | 76 | 1021.8 |
| 20260902004727 | 69 | 6 | 5.0 | 9.0 | 0.00 | 0.00 | 0.00 | 76 | 1021.9 |
| 20260902003722 | 70 | 28 | 6.0 | 8.0 | 0.00 | 0.00 | 0.00 | 75 | 1021.8 |
| 20260902001719 | 71 | 28 | 5.0 | 9.0 | 0.00 | 0.00 | 0.00 | 73 | 1021.8 |
| 20260902000719 | 71 | 44 | 6.0 | 11.0 | 0.00 | 0.00 | 0.00 | 71 | 1022.0 |
| 20260902000218 | 71 | 19 | 6.0 | 11.0 | 0.00 | 0.00 | 0.00 | 70 | 1022.1 |
| 20260901235716 | 71 | 24 | 6.0 | 10.0 | 0.00 | 0.00 | 0.00 | 69 | 1022.0 |
| 20260901235218 | 72 | 22 | 5.0 | 10.0 | 0.00 | 0.00 | 0.00 | 67 | 1022.1 |
| 20260901234715 | 72 | 44 | 5.0 | 9.0 | 0.00 | 0.00 | 0.00 | 65 | 1022.0 |
| 20260901234214 | 73 | 37 | 4.0 | 9.0 | 0.00 | 0.00 | 0.00 | 65 | 1021.9 |
| 20260901233717 | 72 | 17 | 4.0 | 7.0 | 0.00 | 0.00 | 0.00 | 65 | 1022.0 |
| 20260901233212 | 73 | 28 | 4.0 | 7.0 | 0.00 | 0.00 | 0.00 | 64 | 1021.9 |
| 20260901232710 | 73 | 23 | 4.0 | 7.0 | 0.00 | 0.00 | 0.00 | 63 | 1022.0 |
| 20260901232212 | 74 | 24 | 3.0 | 6.0 | 0.00 | 0.00 | 0.00 | 62 | 1022.0 |
| 20260901231711 | 74 | 30 | 2.0 | 6.0 | 0.00 | 0.00 | 0.00 | 61 | 1022.0 |
| 20260901231212 | 74 | 20 | 2.0 | 4.0 | 0.00 | 0.00 | 0.00 | 61 | 1022.1 |
| 20260901230710 | 74 | 23 | 3.0 | 7.0 | 0.00 | 0.00 | 0.00 | 61 | 1022.1 |
| 20260901230210 | 74 | 32 | 3.0 | 7.0 | 0.00 | 0.00 | 0.00 | 62 | 1022.0 |
| 20260901225708 | 74 | 34 | 3.0 | 7.0 | 0.00 | 0.00 | 0.00 | 63 | 1022.1 |
| 20260901225208 | 73 | 15 | 2.0 | 5.0 | 0.00 | 0.00 | 0.00 | 64 | 1022.1 |
| 20260901224710 | 73 | 23 | 2.0 | 5.0 | 0.00 | 0.00 | 0.00 | 64 | 1022.1 |
| 20260901224206 | 73 | 22 | 2.0 | 5.0 | 0.00 | 0.00 | 0.00 | 65 | 1022.2 |
| 20260901223207 | 73 | 27 | 2.0 | 5.0 | 0.00 | 0.00 | 0.00 | 65 | 1022.2 |
| 20260901221702 | 74 | 14 | 1.0 | 3.0 | 0.00 | 0.00 | 0.00 | 64 | 1022.3 |
| 20260901221202 | 74 | 22 | 1.0 | 4.0 | 0.00 | 0.00 | 0.00 | 64 | 1022.2 |
| 20260901220201 | 73 | 11 | 1.0 | 3.0 | 0.00 | 0.00 | 0.00 | 65 | 1022.2 |
| 20260901215700 | 73 | 16 | 1.0 | 3.0 | 0.00 | 0.00 | 0.00 | 65 | 1022.2 |
| 20260901215201 | 73 | 13 | 0.0 | 3.0 | 0.00 | 0.00 | 0.00 | 65 | 1022.2 |
| 20260901214658 | 74 | 352 | 1.0 | 3.0 | 0.00 | 0.00 | 0.00 | 65 | 1022.2 |
| 20260901213701 | 74 | 8 | 1.0 | 4.0 | 0.00 | 0.00 | 0.00 | 64 | 1022.2 |
| 20260901213156 | 73 | 3 | 1.0 | 2.0 | 0.00 | 0.00 | 0.00 | 65 | 1022.1 |
| 20260901212654 | 73 | 14 | 0.0 | 1.0 | 0.00 | 0.00 | 0.00 | 66 | 1022.1 |
| 20260901212152 | 73 | 16 | 0.0 | 1.0 | 0.00 | 0.00 | 0.00 | 66 | 1022.0 |
| 20260901211652 | 73 | 14 | 0.0 | 2.0 | 0.00 | 0.00 | 0.00 | 66 | 1022.1 |
| 20260901211154 | 73 | 17 | 0.0 | 2.0 | 0.00 | 0.00 | 0.00 | 66 | 1022.2 |
| 20260901210650 | 74 | 8 | 0.0 | 2.0 | 0.00 | 0.00 | 0.00 | 65 | 1022.2 |
| 20260901210144 | 74 | 20 | 0.0 | 2.0 | 0.00 | 0.00 | 0.00 | 65 | 1022.2 |
| 20260901205142 | 74 | 317 | 0.0 | 3.0 | 0.00 | 0.00 | 0.00 | 64 | 1022.2 |
| 20260901204643 | 74 | 347 | 0.0 | 3.0 | 0.00 | 0.00 | 0.00 | 64 | 1022.2 |
| 20260901204143 | 74 | 329 | 1.0 | 4.0 | 0.00 | 0.00 | 0.00 | 64 | 1022.1 |
| 20260901203139 | 74 | 345 | 0.0 | 3.0 | 0.00 | 0.00 | 0.00 | 64 | 1022.0 |